Location: Contre
(49.7477°N, 2.0963°E)
Time: 12:56:59
(UTC+00:00)

Meteor 2-12 Rocket - Pass Details

Date: 18 November 2025
Orbit: 935 x 957 km, 82.5° (Epoch: 05 December)

Event Time Altitude Azimuth Distance (km) Brightness Sun altitude
Rises 04:31:59 0° 123° (ESE) 3,630 8.4 -25.0°
Reaches altitude 10° 04:36:31 10° 92° (E) 2,688 7.9 -24.2°
Maximum altitude 04:38:20 11° 75° (ENE) 2,585 7.7 -23.9°
Drops below altitude 10° 04:40:11 10° 57° (ENE) 2,690 7.5 -23.6°
Sets 04:44:42 0° 26° (NNE) 3,637 7.8 -22.9°
